Total_Precipitation_Accumulation
0.63 0.60 0.55 0.51 0.49 0.48 0.46 0.41 0.37 0.32 0.29 0.29 0.28 0.25 0.24 0.24 0.23 0.21 0.18 0.17 0.17 0.20 0.30 0.49 0.72 0.93 1.09 1.24 1.33 1.23 1.18 1.03 0.77 0.61 0.59 0.67 0.72 0.78 0.78 0.84 0.84 0.72 0.69
0.61 0.61 0.58 0.56 0.52 0.47 0.45 0.43 0.38 0.33 0.28 0.26 0.24 0.23 0.23 0.22 0.23 0.24 0.22 0.23 0.21 0.21 0.27 0.37 0.54 0.82 1.04 1.18 1.34 1.46 1.32 1.29 1.14 0.85 0.68 0.66 0.69 0.74 0.78 0.83 0.88 0.85 0.75
0.57 0.61 0.63 0.59 0.54 0.50 0.47 0.45 0.43 0.40 0.35 0.29 0.24 0.21 0.19 0.19 0.18 0.19 0.21 0.25 0.26 0.25 0.26 0.33 0.41 0.61 0.89 1.12 1.28 1.50 1.55 1.42 1.42 1.27 1.00 0.79 0.73 0.72 0.76 0.81 0.86 0.92 0.86
0.62 0.63 0.64 0.63 0.57 0.54 0.52 0.49 0.46 0.43 0.39 0.33 0.27 0.24 0.20 0.18 0.16 0.15 0.15 0.18 0.26 0.29 0.28 0.29 0.34 0.45 0.71 0.99 1.25 1.45 1.83 1.70 1.58 1.61 1.52 1.19 0.91 0.81 0.81 0.85 0.89 0.95 0.98
0.66 0.66 0.64 0.63 0.64 0.64 0.60 0.57 0.53 0.47 0.41 0.36 0.32 0.28 0.23 0.20 0.18 0.17 0.15 0.14 0.17 0.24 0.30 0.31 0.33 0.35 0.49 0.76 1.06 1.33 1.78 2.10 1.90 1.79 1.82 1.70 1.33 1.04 0.92 0.93 0.97 1.01 1.06
0.70 0.66 0.65 0.62 0.61 0.62 0.61 0.58 0.55 0.49 0.43 0.39 0.37 0.33 0.27 0.22 0.20 0.18 0.16 0.15 0.15 0.17 0.26 0.32 0.34 0.30 0.32 0.46 0.74 1.13 1.51 1.95 2.19 2.06 1.98 1.97 1.82 1.50 1.23 1.09 1.07 1.14 1.17
0.79 0.74 0.69 0.64 0.61 0.57 0.54 0.51 0.53 0.54 0.51 0.47 0.48 0.45 0.39 0.32 0.26 0.22 0.18 0.16 0.14 0.14 0.18 0.29 0.37 0.35 0.30 0.33 0.42 0.67 1.10 1.63 2.08 2.28 2.27 2.16 2.10 1.90 1.61 1.38 1.26 1.30 1.37
0.84 0.81 0.72 0.70 0.66 0.60 0.56 0.52 0.51 0.54 0.55 0.54 0.55 0.56 0.49 0.44 0.36 0.27 0.23 0.20 0.16 0.15 0.18 0.24 0.33 0.39 0.39 0.33 0.27 0.38 0.62 1.12 1.71 2.18 2.41 2.43 2.36 2.27 1.99 1.71 1.50 1.46 1.55
0.84 0.87 0.81 0.73 0.71 0.68 0.62 0.56 0.51 0.51 0.54 0.51 0.51 0.67 0.70 0.50 0.32 0.24 0.22 0.21 0.20 0.18 0.18 0.21 0.29 0.36 0.43 0.42 0.35 0.34 0.41 0.69 1.21 1.81 2.26 2.49 2.57 2.63 2.49 2.10 1.81 1.65 1.67
0.82 0.81 0.84 0.81 0.76 0.72 0.66 0.60 0.56 0.53 0.56 0.58 0.54 0.54 0.59 0.57 0.56 0.37 0.22 0.20 0.22 0.22 0.21 0.21 0.25 0.31 0.38 0.46 0.47 0.45 0.45 0.52 0.84 1.29 1.83 2.34 2.67 2.92 3.06 2.66 2.18 1.94 1.88
0.81 0.82 0.80 0.83 0.81 0.75 0.70 0.67 0.65 0.63 0.63 0.63 0.60 0.54 0.50 0.46 0.47 0.56 0.37 0.24 0.25 0.25 0.25 0.26 0.27 0.30 0.35 0.43 0.49 0.51 0.56 0.57 0.74 1.04 1.40 1.95 2.49 3.02 3.47 3.30 2.61 2.12 1.92
0.85 0.80 0.79 0.79 0.79 0.76 0.68 0.65 0.66 0.68 0.69 0.65 0.61 0.57 0.58 0.57 0.49 0.53 0.48 0.33 0.30 0.27 0.29 0.32 0.34 0.34 0.35 0.41 0.47 0.57 0.60 0.63 0.71 0.88 1.08 1.44 1.99 2.55 3.29 3.58 3.04 2.37 1.97
0.91 0.84 0.79 0.76 0.74 0.73 0.72 0.69 0.69 0.68 0.67 0.71 0.69 0.62 0.57 0.53 0.51 0.56 0.61 0.50 0.43 0.35 0.34 0.35 0.35 0.39 0.42 0.43 0.46 0.53 0.55 0.61 0.70 0.81 0.90 0.99 1.33 1.94 2.68 3.50 3.68 2.95 2.33
0.85 0.85 0.85 0.80 0.72 0.68 0.70 0.74 0.73 0.71 0.71 0.72 0.69 0.66 0.62 0.53 0.54 0.61 0.69 0.76 0.72 0.50 0.41 0.36 0.33 0.37 0.42 0.47 0.49 0.54 0.51 0.59 0.66 0.75 0.81 0.83 0.90 1.23 1.90 2.84 3.75 3.78 3.03
0.85 0.91 0.91 0.90 0.83 0.77 0.73 0.72 0.73 0.72 0.76 0.75 0.74 0.71 0.72 0.64 0.60 0.61 0.64 0.78 0.99 0.84 0.50 0.36 0.35 0.37 0.42 0.48 0.54 0.53 0.51 0.56 0.62 0.71 0.79 0.81 0.79 0.90 1.22 1.82 2.75 3.72 3.87
0.83 0.95 0.98 0.92 0.92 0.89 0.83 0.78 0.74 0.72 0.77 0.79 0.79 0.80 0.78 0.77 0.75 0.69 0.69 0.73 0.85 0.93 0.69 0.36 0.33 0.35 0.47 0.55 0.62 0.56 0.57 0.64 0.62 0.68 0.73 0.76 0.76 0.82 1.00 1.30 1.86 2.74 3.57
0.78 0.86 0.97 0.99 0.97 0.96 0.92 0.90 0.86 0.83 0.82 0.82 0.85 0.90 0.88 0.86 0.91 0.86 0.80 0.76 0.77 0.84 0.82 0.42 0.32 0.34 0.50 0.64 0.67 0.66 0.68 0.65 0.58 0.61 0.67 0.72 0.73 0.76 0.89 1.08 1.38 1.95 2.77
0.79 0.82 0.92 1.05 1.07 1.04 0.99 0.96 0.95 0.98 1.04 0.99 0.92 0.93 0.94 0.94 0.97 0.96 0.95 0.87 0.76 0.70 0.75 0.60 0.40 0.41 0.50 0.65 0.74 0.75 0.74 0.71 0.64 0.63 0.65 0.70 0.72 0.75 0.84 0.97 1.16 1.49 2.08
0.85 0.84 0.92 1.07 1.14 1.15 1.11 1.01 0.99 1.03 1.13 1.20 1.17 1.14 1.06 1.03 1.05 1.01 1.02 0.97 0.86 0.75 0.71 0.70 0.53 0.44 0.51 0.63 0.78 0.83 0.78 0.76 0.72 0.72 0.69 0.68 0.69 0.71 0.76 0.85 1.00 1.21 1.47
0.87 0.87 0.88 0.96 1.09 1.19 1.27 1.26 1.26 1.20 1.20 1.24 1.27 1.28 1.24 1.23 1.18 1.13 1.12 1.07 1.02 0.98 0.91 0.90 0.78 0.62 0.58 0.63 0.83 0.97 0.93 0.82 0.77 0.74 0.73 0.67 0.69 0.68 0.66 0.64 0.68 0.84 1.07
0.88 0.88 0.88 0.87 0.95 1.21 1.56 1.54 1.45 1.37 1.24 1.15 1.10 1.11 1.17 1.30 1.35 1.40 1.43 1.33 1.28 1.33 1.28 1.22 1.05 0.88 0.76 0.80 0.92 0.97 1.09 1.01 0.89 0.81 0.78 0.68 0.64 0.58 0.53 0.51 0.55 0.66 0.83
0.97 0.94 0.90 0.86 0.89 1.09 1.51 1.56 1.28 1.08 0.95 0.94 0.93 0.88 0.89 1.08 1.17 1.27 1.39 1.40 1.45 1.58 1.63 1.55 1.33 1.11 0.87 0.80 0.89 1.07 1.24 1.35 1.21 0.87 0.86 0.82 0.69 0.65 0.54 0.45 0.47 0.54 0.69
1.00 0.98 0.91 0.85 0.79 0.86 1.25 1.34 1.13 0.86 0.75 0.72 0.73 0.74 0.75 0.84 0.97 0.96 1.09 1.17 1.24 1.39 1.59 1.66 1.60 1.23 0.97 0.82 0.99 1.19 1.24 1.34 1.23 1.00 1.05 1.16 0.95 0.80 0.64 0.58 0.60 0.55 0.63
1.04 0.99 0.93 0.86 0.81 0.76 1.08 1.26 1.12 0.81 0.69 0.62 0.62 0.60 0.60 0.66 0.80 0.94 1.03 1.05 1.01 1.11 1.37 1.56 1.68 1.49 1.24 1.10 1.25 1.52 1.65 1.66 1.49 1.27 1.22 1.42 1.20 1.01 0.87 0.75 0.68 0.61 0.63
0.98 0.97 0.92 0.83 0.81 0.79 0.98 1.29 1.26 0.90 0.74 0.62 0.60 0.60 0.55 0.53 0.75 0.96 0.97 0.94 0.85 0.88 1.05 1.31 1.51 1.57 1.57 1.63 1.71 1.98 2.16 2.11 1.95 1.62 1.39 1.47 1.45 1.33 1.17 1.02 0.85 0.71 0.64
0.94 0.94 0.94 0.86 0.79 0.75 0.90 1.26 1.43 1.01 0.80 0.68 0.63 0.60 0.66 0.68 0.83 0.89 0.85 0.90 0.93 0.84 0.80 0.88 0.98 1.08 1.17 1.28 1.52 1.77 1.94 2.02 1.99 1.96 1.57 1.45 1.59 1.67 1.78 1.40 1.03 0.74 0.63